TimeMDT,TemperatureF,Dew PointF,Humidity,Sea Level PressureIn,VisibilityMPH,Wind Direction,Wind SpeedMPH,Gust SpeedMPH,PrecipitationIn,Events,Conditions,WindDirDegrees,DateUTC
12:56 AM,8.1,5.0,87,30.29,-9999.0,Calm,Calm,-,N/A,,Unknown,0,2013-04-10 06:56:00
1:56 AM,6.1,1.0,80,30.29,-9999.0,Calm,Calm,-,N/A,,Unknown,0,2013-04-10 07:56:00
2:56 AM,1.9,-2.0,83,30.29,-9999.0,Calm,Calm,-,N/A,,Unknown,0,2013-04-10 08:56:00
3:56 AM,-6.0,-9.0,87,30.31,-9999.0,Calm,Calm,-,N/A,,Unknown,0,2013-04-10 09:56:00
4:56 AM,-4.0,-9.9,76,30.29,-9999.0,Calm,Calm,-,N/A,,Unknown,0,2013-04-10 10:56:00
5:56 AM,-4.0,-9.0,79,30.30,-9999.0,Calm,Calm,-,N/A,,Unknown,0,2013-04-10 11:56:00
6:56 AM,-2.9,-8.0,79,30.31,-9999.0,Calm,Calm,-,N/A,,Unknown,0,2013-04-10 12:56:00
7:56 AM,-0.0,-4.0,83,30.32,-9999.0,Calm,Calm,-,N/A,,Unknown,0,2013-04-10 13:56:00
8:56 AM,3.9,1.9,91,30.32,-9999.0,Calm,Calm,-,N/A,,Unknown,0,2013-04-10 14:56:00
9:56 AM,7.0,3.9,87,30.31,-9999.0,Calm,Calm,-,N/A,,Unknown,0,2013-04-10 15:56:00
10:56 AM,12.9,6.1,74,30.29,-9999.0,Calm,Calm,-,N/A,,Unknown,0,2013-04-10 16:56:00
11:56 AM,19.0,8.1,62,30.27,-9999.0,Calm,Calm,-,N/A,,Unknown,0,2013-04-10 17:56:00
1:56 PM,27.0,14.0,58,30.19,-9999.0,ESE,3.5,-,0.01,,Unknown,110,2013-04-10 19:56:00
2:56 PM,30.0,17.1,59,30.18,-9999.0,SSE,4.6,-,N/A,,Unknown,160,2013-04-10 20:56:00
3:56 PM,32.0,19.9,61,30.20,-9999.0,ESE,3.5,-,N/A,,Unknown,110,2013-04-10 21:56:00
4:56 PM,39.0,21.0,49,30.12,-9999.0,NW,9.2,-,N/A,,Unknown,310,2013-04-10 22:56:00
5:56 PM,39.0,21.9,50,30.10,-9999.0,West,8.1,-,N/A,,Unknown,280,2013-04-10 23:56:00
6:56 PM,37.0,23.0,57,30.09,-9999.0,Variable,3.5,-,N/A,,Unknown,0,2013-04-11 00:56:00
7:56 PM,32.0,21.9,66,30.09,-9999.0,Calm,Calm,-,N/A,,Unknown,0,2013-04-11 01:56:00
8:56 PM,28.9,23.0,78,30.07,-9999.0,Calm,Calm,-,N/A,,Unknown,0,2013-04-11 02:56:00
9:56 PM,28.9,24.1,82,30.06,-9999.0,Calm,Calm,-,N/A,,Unknown,0,2013-04-11 03:56:00
10:56 PM,28.9,25.0,85,30.01,-9999.0,Calm,Calm,-,N/A,,Unknown,0,2013-04-11 04:56:00
11:56 PM,27.0,24.1,89,29.97,-9999.0,Calm,Calm,-,N/A,,Unknown,0,2013-04-11 05:56:00